When you browse on this site, cookies collect data to enhance your experience and personalize the content and advertising you see.
Visit our Privacy Policy to learn more. By continuing to use the site, you agree to this use of cookies and data.
  • In Slovakia
  • List of Countries
  • For 7 days
  • Water Temperature
  • Satellite Maps
  • Weather Map
  • Weather Widgets
  • user-avatar
    Login

    Hourly Weather La Rioja

    Today, 10 December, Monday

    Time Temperature Precipitation Wind Pressure Humidity
    00:00 +30°C° 0 mm 2 mps 714 mmHg 48%
    01:00 +29°C° 0 mm 2 mps 714 mmHg 50%
    02:00 +29°C° 0 mm 2 mps 714 mmHg 51%
    03:00 +28°C° 0 mm 2 mps 714 mmHg 53%
    04:00 +28°C° 0 mm 2 mps 714 mmHg 55%
    05:00 +27°C° 0 mm 2 mps 713 mmHg 57%
    06:00 +28°C° 0 mm 2 mps 713 mmHg 53%
    07:00 +29°C° 0 mm 2 mps 714 mmHg 50%
    08:00 +30°C° 0 mm 2 mps 714 mmHg 46%
    09:00 +33°C° 0 mm 3 mps 713 mmHg 41%
    10:00 +34°C° 0 mm 3 mps 713 mmHg 36%
    11:00 +36°C° 0 mm 4 mps 713 mmHg 31%
    12:00 +37°C° 0 mm 4 mps 712 mmHg 29%
    13:00 +39°C° 0 mm 5 mps 711 mmHg 27%
    14:00 +41°C° 0 mm 5 mps 710 mmHg 25%
    15:00 +41°C° 0 mm 5 mps 710 mmHg 25%
    16:00 +41°C° 0 mm 5 mps 709 mmHg 26%
    17:00 +41°C° 0 mm 5 mps 708 mmHg 26%
    18:00 +40°C° 0 mm 5 mps 709 mmHg 29%
    19:00 +38°C° 0 mm 4 mps 709 mmHg 33%
    20:00 +37°C° 0 mm 4 mps 709 mmHg 37%
    21:00 +36°C° 0 mm 4 mps 710 mmHg 38%
    22:00 +35°C° 0 mm 4 mps 710 mmHg 39%
    23:00 +34°C° 0 mm 3 mps 711 mmHg 40%

    Tomorrow, 11 December, Tuesday

    Time Temperature Precipitation Wind Pressure Humidity
    00:00 +33°C° 0 mm 3 mps 710 mmHg 42%
    01:00 +33°C° 0 mm 3 mps 710 mmHg 44%
    02:00 +31°C° 0 mm 2 mps 709 mmHg 46%
    03:00 +30°C° 0 mm 2 mps 709 mmHg 48%
    04:00 +30°C° 0 mm 2 mps 709 mmHg 51%
    05:00 +29°C° 0 mm 2 mps 709 mmHg 53%
    06:00 +31°C° 0 mm 2 mps 709 mmHg 49%
    07:00 +33°C° 0 mm 3 mps 710 mmHg 45%
    08:00 +35°C° 0 mm 3 mps 711 mmHg 42%
    09:00 +36°C° 0 mm 4 mps 711 mmHg 36%
    10:00 +39°C° 0 mm 5 mps 711 mmHg 30%
    11:00 +41°C° 0 mm 6 mps 712 mmHg 24%
    12:00 +41°C° 0 mm 6 mps 711 mmHg 23%
    13:00 +42°C° 0 mm 6 mps 711 mmHg 22%
    14:00 +42°C° 0 mm 6 mps 710 mmHg 21%
    15:00 +42°C° 0 mm 5 mps 710 mmHg 22%
    16:00 +42°C° 0 mm 5 mps 710 mmHg 22%
    17:00 +42°C° 0 mm 5 mps 709 mmHg 22%
    18:00 +41°C° 0 mm 5 mps 710 mmHg 24%
    19:00 +39°C° 0 mm 5 mps 710 mmHg 27%
    20:00 +37°C° 0 mm 5 mps 711 mmHg 29%
    21:00 +36°C° 0 mm 5 mps 712 mmHg 32%
    22:00 +35°C° 0 mm 5 mps 713 mmHg 34%
    23:00 +34°C° 0 mm 5 mps 713 mmHg 37%

    Day after tomorrow, 12 December, Wednesday

    Time Temperature Precipitation Wind Pressure Humidity
    00:00 +33°C° 0 mm 4 mps 713 mmHg 40%
    01:00 +32°C° 0 mm 4 mps 713 mmHg 43%
    02:00 +31°C° 0 mm 3 mps 713 mmHg 46%
    03:00 +30°C° 0 mm 3 mps 713 mmHg 48%
    04:00 +30°C° 0 mm 3 mps 714 mmHg 49%
    05:00 +29°C° 0 mm 3 mps 714 mmHg 51%
    06:00 +29°C° 0.1 mm 3 mps 714 mmHg 53%
    07:00 +29°C° 0.1 mm 3 mps 715 mmHg 56%
    08:00 +29°C° 0.1 mm 3 mps 715 mmHg 59%
    09:00 +30°C° 0.1 mm 3 mps 715 mmHg 56%
    10:00 +31°C° 0.1 mm 3 mps 715 mmHg 54%
    11:00 +33°C° 0.1 mm 4 mps 715 mmHg 52%
    12:00 +33°C° 0.1 mm 4 mps 713 mmHg 51%
    13:00 +34°C° 0.1 mm 4 mps 712 mmHg 50%
    14:00 +35°C° 0.1 mm 4 mps 711 mmHg 49%
    15:00 +35°C° 0 mm 4 mps 711 mmHg 48%
    16:00 +35°C° 0 mm 4 mps 710 mmHg 47%
    17:00 +36°C° 0 mm 4 mps 709 mmHg 46%
    18:00 +35°C° 0 mm 4 mps 710 mmHg 48%
    19:00 +34°C° 0 mm 4 mps 710 mmHg 51%
    20:00 +34°C° 0 mm 4 mps 710 mmHg 53%
    21:00 +33°C° 0.3 mm 4 mps 710 mmHg 57%
    22:00 +32°C° 0.3 mm 4 mps 710 mmHg 61%
    23:00 +31°C° 0.3 mm 3 mps 710 mmHg 65%

    13 December, Thursday

    Time Temperature Precipitation Wind Pressure Humidity
    00:00 +30°C° 0 mm 3 mps 710 mmHg 68%
    01:00 +29°C° 0 mm 3 mps 709 mmHg 71%
    02:00 +29°C° 0 mm 3 mps 708 mmHg 73%
    03:00 +29°C° 0 mm 3 mps 708 mmHg 75%
    04:00 +28°C° 0 mm 3 mps 708 mmHg 76%
    05:00 +28°C° 0 mm 3 mps 707 mmHg 78%
    06:00 +29°C° 0 mm 2 mps 708 mmHg 73%
    07:00 +30°C° 0 mm 2 mps 708 mmHg 69%
    08:00 +31°C° 0 mm 2 mps 708 mmHg 64%
    09:00 +32°C° 0 mm 2 mps 708 mmHg 58%
    10:00 +35°C° 0 mm 2 mps 707 mmHg 51%
    11:00 +36°C° 0 mm 3 mps 707 mmHg 45%
    12:00 +37°C° 0 mm 3 mps 706 mmHg 41%
    13:00 +40°C° 0 mm 4 mps 705 mmHg 37%
    14:00 +41°C° 0 mm 4 mps 704 mmHg 33%
    15:00 +41°C° 0.1 mm 4 mps 704 mmHg 32%
    16:00 +41°C° 0.1 mm 4 mps 704 mmHg 32%
    17:00 +42°C° 0.1 mm 4 mps 703 mmHg 31%
    18:00 +40°C° 0.7 mm 4 mps 704 mmHg 34%
    19:00 +38°C° 0.7 mm 4 mps 705 mmHg 37%
    20:00 +37°C° 0.7 mm 4 mps 706 mmHg 39%
    21:00 +36°C° 1.8 mm 4 mps 706 mmHg 45%
    22:00 +34°C° 1.8 mm 4 mps 707 mmHg 50%
    23:00 +33°C° 1.8 mm 4 mps 708 mmHg 55%

    14 December, Friday

    Time Temperature Precipitation Wind Pressure Humidity
    00:00 +32°C° 1.8 mm 4 mps 708 mmHg 60%
    01:00 +30°C° 1.8 mm 4 mps 708 mmHg 66%
    02:00 +28°C° 1.8 mm 4 mps 708 mmHg 71%
    03:00 +28°C° 0.5 mm 3 mps 708 mmHg 71%
    04:00 +28°C° 0.5 mm 3 mps 709 mmHg 70%
    05:00 +28°C° 0.5 mm 3 mps 710 mmHg 70%
    06:00 +29°C° 1 mm 4 mps 710 mmHg 66%
    07:00 +29°C° 1 mm 4 mps 711 mmHg 62%
    08:00 +30°C° 1 mm 5 mps 712 mmHg 57%
    09:00 +32°C° 0.1 mm 6 mps 712 mmHg 51%
    10:00 +33°C° 0.1 mm 6 mps 712 mmHg 45%
    11:00 +34°C° 0.1 mm 6 mps 712 mmHg 39%
    12:00 +35°C° 0.1 mm 6 mps 712 mmHg 38%
    13:00 +35°C° 0.1 mm 7 mps 711 mmHg 37%
    14:00 +35°C° 0.1 mm 7 mps 711 mmHg 37%
    15:00 +35°C° 0.3 mm 6 mps 711 mmHg 40%
    16:00 +34°C° 0.3 mm 5 mps 711 mmHg 44%
    17:00 +33°C° 0.3 mm 5 mps 711 mmHg 47%
    18:00 +33°C° 0.6 mm 4 mps 712 mmHg 51%
    19:00 +31°C° 0.6 mm 3 mps 713 mmHg 54%
    20:00 +30°C° 0.6 mm 3 mps 713 mmHg 57%
    21:00 +30°C° 1.3 mm 3 mps 714 mmHg 60%
    22:00 +29°C° 1.3 mm 3 mps 715 mmHg 63%
    23:00 +28°C° 1.3 mm 3 mps 715 mmHg 65%

    15 December, Saturday

    Time Temperature Precipitation Wind Pressure Humidity
    00:00 +27°C° 0.8 mm 3 mps 715 mmHg 69%
    01:00 +27°C° 0.8 mm 2 mps 715 mmHg 72%
    02:00 +26°C° 0.8 mm 2 mps 715 mmHg 76%
    03:00 +26°C° 0.4 mm 2 mps 715 mmHg 76%
    04:00 +26°C° 0.4 mm 1 mps 715 mmHg 77%
    05:00 +26°C° 0.4 mm 1 mps 715 mmHg 78%
    06:00 +26°C° 0.3 mm 2 mps 715 mmHg 73%
    07:00 +27°C° 0.3 mm 2 mps 716 mmHg 69%
    08:00 +28°C° 0.3 mm 2 mps 716 mmHg 64%
    09:00 +29°C° 0.1 mm 3 mps 715 mmHg 59%
    10:00 +30°C° 0.1 mm 3 mps 715 mmHg 54%
    11:00 +32°C° 0.1 mm 4 mps 714 mmHg 49%
    12:00 +33°C° 0 mm 4 mps 714 mmHg 46%
    13:00 +34°C° 0 mm 5 mps 713 mmHg 43%
    14:00 +35°C° 0 mm 5 mps 712 mmHg 40%
    15:00 +35°C° 0 mm 5 mps 711 mmHg 41%
    16:00 +35°C° 0 mm 5 mps 711 mmHg 41%
    17:00 +35°C° 0 mm 5 mps 710 mmHg 41%
    18:00 +34°C° 0 mm 5 mps 711 mmHg 44%
    19:00 +33°C° 0 mm 4 mps 711 mmHg 47%
    20:00 +32°C° 0 mm 4 mps 712 mmHg 49%
    21:00 +32°C° 0 mm 4 mps 712 mmHg 52%
    22:00 +30°C° 0 mm 3 mps 712 mmHg 55%
    23:00 +29°C° 0 mm 3 mps 713 mmHg 58%
    Show more